User: anonymous   Login
Location: Unspecified
(0.0000°N, 0.0000°E)
Time: 15:30:27
(UTC+00:00)
Language:

EXOCUBE - Orbit

View from above orbital plane
View from above orbital plane
View from above satellite
View from above satellite

Ground track
Ground track

The orbit data is extracted from the following two-line orbital elements,

1 40380U 15003E   17323.65238320 +.00002247 +00000-0 +10693-3 0  9996
2 40380 099.1185 174.2408 0143583 221.3696 137.6586 15.12011825154270
Epoch (UTC): 19 November 2017 15:39:25
Eccentricity: 0.0143583
inclination: 99.1185°
perigee height: 431 km
apogee height: 629 km
right ascension of ascending node: 174.2408°
argument of perigee: 221.3696°
revolutions per day: 15.12011825
mean anomaly at epoch: 137.6586°
orbit number at epoch: 15427

The dashed part of the orbit path shows where the satellite is in the earth's shadow,  

DLR